Location: Borovka
(49.7741°N, 14.5280°E)
Time: 01:31:25
(UTC+00:00)

BlueWalker 3 - Pass Details

Date: 23 January 2026
Orbit: 451 x 461 km, 53.2° (Epoch: 13 February)

Event Time Altitude Azimuth Distance (km) Brightness Sun altitude
Rises 16:11:39 0° 191° (S) 2,445 6.0 -5.1°
Reaches altitude 10° 16:14:36 10° 164° (SSE) 1,577 4.6 -5.6°
Maximum altitude 16:16:25 14° 133° (SE) 1,375 3.9 -5.8°
Drops below altitude 10° 16:18:15 10° 102° (ESE) 1,582 4.0 -6.1°
Enters shadow 16:19:22 - 89° (E) 1,862 4.2 -6.3°
